Flag for Japan

Past Weather in Tokyo, Japan — Yesterday and Last 2 Weeks

Now
66 °F

Overcast.


Feels Like: 66 °F
Forecast: 74 / 64 °F
Wind: 6 mph from Northeast

Location: Tokyo
Current Time: Sep 29, 2020 at 4:50:10 am
Latest Report: Sep 29, 2020 at 3:00 am
Visibility: 13 mi
Pressure29.94 "Hg
Humidity: 77%
Dew Point: 59 °F
Location of TokyoLocation

Past Weather in Tokyo — Graph

°F

Tokyo Temperature Yesterday

Maximum temperature yesterday: 80 °F (at 2:00 pm)
Minimum temperature yesterday: 61 °F (at 6:00 am)
Average temperature yesterday: 70 °F

High & Low Weather Summary for the Past Weeks

 TemperatureHumidityPressure
High92 °F (Sep 18, 1:00 pm)100% (Sep 14, 5:00 am)30.07 "Hg (Sep 14, 5:00 am)
Low61 °F (Sep 28, 6:00 am)46% (Sep 28, 3:00 pm)29.62 "Hg (Sep 25, 4:00 pm)
Average72 °F84%29.89 "Hg
* Reported Sep 14 3:00 am — Sep 29 3:00 am, Tokyo. Weather by CustomWeather, © 2020

Note: Actual official high and low records may vary slightly from our data, if they occured in-between our weather recording intervals... More about our weather records

Tokyo Weather History for the Previous 24 Hours

Scroll right to see more
 ConditionsComfort  
Time TempWeatherWind HumidityBarometerVisibility
3:00 am
Tue, Sep 29
66 °FOvercast.6 mph77%29.94 "Hg12 mi
2:00 am67 °FMild.5 mph73%29.95 "HgN/A
1:00 am67 °FMild.3 mph75%29.96 "HgN/A
12:00 am67 °FMild.7 mph77%29.96 "HgN/A
11:00 pm
Mon, Sep 28
68 °FMild.6 mph78%29.98 "HgN/A
9:00 pm71 °FOvercast.6 mph67%29.97 "Hg12 mi
8:00 pm70 °FMild.7 mph66%29.96 "HgN/A
7:00 pm72 °FMild.10 mph67%29.94 "HgN/A
6:00 pm74 °FPassing clouds.6 mph65%29.91 "Hg16 mi
5:00 pm75 °FMild.5 mph54%29.87 "HgN/A
3:00 pm80 °FPassing clouds.6 mph46%29.84 "Hg19 mi
2:00 pm80 °FWarm.6 mph48%29.85 "HgN/A
1:00 pm79 °FWarm.5 mph48%29.87 "HgN/A
12:00 pm78 °FPassing clouds.3 mph51%29.89 "Hg25 mi
11:00 am77 °FWarm.8 mph50%29.91 "HgN/A
10:00 am75 °FMild.8 mph56%29.91 "HgN/A
9:00 am72 °FPassing clouds.7 mph60%29.91 "Hg19 mi
8:00 am69 °FMild.5 mph78%29.90 "HgN/A
7:00 am63 °FMild.3 mph84%29.90 "HgN/A
6:00 am61 °FPassing clouds.3 mph96%29.88 "Hg19 mi
5:00 am62 °FCool.3 mph99%29.87 "HgN/A
4:00 am64 °FMild.3 mph100%29.86 "HgN/A
Weather by CustomWeather, © 2020

See weather overview